This demonstration page uses our WeatherBlox Daily Observations layout. Learn more.

40.92945, -100.16068

Hourly Observations for December 27, 2018

Temp ( °F °C ) Dew Point ( °F °C ) Humidity (%) Winds ( mph kmh ) Pressure ( in mb ) Visibility ( mi km ) Precip ( " mm )
12:15 am 00:15 Cloudy 35 1.6 33 0.3 91 91 N 20 31 29.77 1008 10 16.09344 0 0
12:35 am 00:35 Cloudy 35 1.6 32 0.1 90 90 N 22 35 29.77 1008 10 16.09344 0 0
12:55 am 00:55 Cloudy 35 1.5 32 0.1 91 91 N 23 37 29.77 1008 10 16.09344 0 0
1:15 am 01:15 Cloudy 34 1 31 -0.6 89 89 N 24 39 29.77 1008 10 16.09344 0 0
1:35 am 01:35 Cloudy 33 0.5 30 -1.3 88 88 N 30 48 29.8 1009 7 11.265408 0 0
1:55 am 01:55 Windy with Snow Likely 32 0 28 -2.2 85 85 N 30 48 29.77 1008 2.5 4.02336 0 0
2:15 am 02:15 Windy with Snow Likely 31 -0.6 28 -2.5 87 87 N 25 41 29.77 1008 2.5 4.02336 0 0
2:35 am 02:35 Windy with Snow Likely 29 -1.5 26 -3.6 86 86 N 37 59 29.74 1007 2 3.218688 0 0
2:55 am 02:55 Windy with Snow Likely 28 -2.1 25 -4.1 86 86 N 28 44 29.74 1007 2 3.218688 0 0
3:15 am 03:15 Windy with Snow Likely 28 -2.4 24 -4.6 85 85 N 37 59 29.74 1007 2.5 4.02336 0 0
3:35 am 03:35 Windy with Snow Likely 27 -2.8 23 -4.9 86 86 N 23 37 29.71 1006 2 3.218688 0 0
3:55 am 03:55 Very Windy with Snow Likely 26 -3.1 22 -5.5 84 84 N 38 61 29.77 1008 2.5 4.02336 0 0
4:15 am 04:15 Windy with Snow Likely 26 -3.3 22 -5.6 84 84 NNW 23 37 29.77 1008 2 3.218688 0 0
4:35 am 04:35 Windy with Snow Likely 26 -3.5 22 -5.8 84 84 NNW 25 41 29.8 1009 1.5 2.414016 0 0
4:55 am 04:55 Windy with Snow Likely 25 -3.9 21 -6 86 86 N 26 43 29.8 1009 1.25 2.01168 0.01 0.254
5:15 am 05:15 Windy with Snow Likely 25 -4.1 21 -6 87 87 NNW 26 43 29.8 1009 1 1.609344 0.01 0.254
5:35 am 05:35 Cloudy with Snow 24 -4.5 21 -6.1 89 89 NNW 25 41 29.77 1008 0.75 1.207008 0.01 0.254
5:55 am 05:55 Cloudy with Heavy Snow 23 -4.9 20 -6.5 89 89 N 23 37 29.74 1007 0.5 0.804672 0.01 0.254
6:15 am 06:15 Cloudy with Snow 23 -5.1 20 -6.7 89 89 NNW 23 37 29.77 1008 0.5 0.804672 0.01 0.254
6:35 am 06:35 Cloudy with Heavy Snow 22 -5.5 19 -7.1 89 89 N 31 50 29.74 1007 0.25 0.402336 0.01 0.254
6:55 am 06:55 Cloudy with Heavy Snow 22 -5.8 19 -7.5 88 88 N 36 57 29.74 1007 0.5 0.804672 0.01 0.254
7:15 am 07:15 Cloudy with Snow 21 -6.2 18 -8 87 87 N 29 46 29.8 1009 0.5 0.804672 0 0
7:35 am 07:35 Cloudy with Snow 21 -6.3 17 -8.1 87 87 NNW 24 39 29.8 1009 0.75 1.207008 0.01 0.254
7:55 am 07:55 Cloudy with Heavy Snow 20 -6.5 17 -8.1 89 89 NNW 18 30 29.8 1009 0.5 0.804672 0.01 0.254
8:15 am 08:15 Cloudy with Heavy Snow 20 -6.6 17 -8.3 88 88 NNW 26 43 29.83 1010 0.25 0.402336 0 0
8:35 am 08:35 Cloudy with Heavy Snow 19 -7 16 -8.7 88 88 NNW 32 52 29.8 1009 0 0 0 0
8:55 am 08:55 Cloudy with Heavy Snow 19 -7 17 -8.6 89 89 NNW 25 41 29.77 1008 0 0 0 0
9:15 am 09:15 Cloudy with Heavy Snow 18 -7.6 15 -9.4 87 87 NNW 32 52 29.8 1009 0 0 0 0
9:35 am 09:35 Cloudy with Snow 18 -7.6 15 -9.5 86 86 NNW 29 46 29.8 1009 0.25 0.402336 0 0
9:55 am 09:55 Cloudy with Snow 18 -7.9 14 -9.9 86 86 NNW 36 57 29.8 1009 0.25 0.402336 0.01 0.254
10:15 am 10:15 Windy with Snow Likely 18 -7.8 14 -9.8 86 86 NNW 23 37 29.8 1009 0.5 0.804672 0 0
10:35 am 10:35 Windy with Snow Likely 18 -8 14 -10.2 84 84 NNW 25 41 29.83 1010 0.5 0.804672 0 0
10:55 am 10:55 Cloudy with Snow 17 -8.4 13 -10.6 84 84 NNW 35 56 29.85 1011 0.5 0.804672 0 0
11:15 am 11:15 Windy with Snow Likely 17 -8.1 13 -10.6 82 82 NNW 31 50 29.83 1010 0.75 1.207008 0.01 0.254
11:35 am 11:35 Windy with Snow Likely 17 -8.1 13 -10.5 83 83 NW 29 46 29.8 1009 1 1.609344 0.02 0.508
11:55 am 11:55 Windy with Snow Likely 17 -8.2 13 -10.6 83 83 NW 31 50 29.8 1009 0.5 0.804672 0.02 0.508
12:15 pm 12:15 Cloudy with Snow 17 -8.5 13 -10.7 84 84 NNW 32 52 29.83 1010 0.25 0.402336 0 0
12:35 pm 12:35 Cloudy with Snow 17 -8.4 13 -10.6 84 84 NW 35 56 29.8 1009 0.5 0.804672 0 0
12:55 pm 12:55 Windy with Snow Likely 17 -8.2 13 -10.5 84 84 NW 32 52 29.8 1009 0.5 0.804672 0 0
1:15 pm 13:15 Cloudy with Snow 17 -8.2 13 -10.5 84 84 NW 35 56 29.83 1010 0.25 0.402336 0.01 0.254
1:35 pm 13:35 Cloudy with Snow 18 -8 13 -10.5 82 82 NW 29 46 29.83 1010 0.5 0.804672 0.01 0.254
1:55 pm 13:55 Windy with Snow Likely 18 -7.6 14 -10.1 82 82 NW 29 46 29.83 1010 0.5 0.804672 0.01 0.254
2:15 pm 14:15 Windy with Snow Likely 19 -7.5 14 -9.9 83 83 NW 26 43 29.83 1010 0.5 0.804672 0 0
2:35 pm 14:35 Windy with Snow Likely 19 -7.3 14 -9.8 83 83 NW 33 54 29.85 1011 0.75 1.207008 0 0
2:55 pm 14:55 Windy with Snow Likely 19 -7.1 15 -9.6 83 83 NNW 31 50 29.85 1011 0.5 0.804672 0 0
3:15 pm 15:15 Windy with Snow Likely 20 -6.7 15 -9.2 83 83 NW 29 46 29.85 1011 0.75 1.207008 0 0
3:35 pm 15:35 Windy with Snow Likely 20 -6.7 15 -9.2 83 83 NW 33 54 29.85 1011 0.75 1.207008 0 0
3:55 pm 15:55 Windy with Snow Likely 19 -7 15 -9.5 83 83 NNW 30 48 29.85 1011 0.75 1.207008 0 0
4:15 pm 16:15 Windy with Snow Likely 19 -7 15 -9.6 82 82 NW 35 56 29.85 1011 0.75 1.207008 0 0
4:35 pm 16:35 Windy with Snow Likely 19 -7 15 -9.7 81 81 NW 26 43 29.88 1012 1.25 2.01168 0 0
4:55 pm 16:55 Windy with Snow Likely 19 -7 15 -9.7 81 81 NNW 36 57 29.88 1012 1.25 2.01168 0 0
5:15 pm 17:15 Cloudy with Haze 19 -7.1 14 -9.9 81 81 NW 29 46 29.88 1012 1.75 2.816352 0 0
5:35 pm 17:35 Windy with Snow Likely 19 -7 14 -9.8 81 81 NW 26 43 29.91 1013 1.25 2.01168 0 0
5:55 pm 17:55 Cloudy with Haze 19 -7 14 -9.8 81 81 NNW 29 46 29.91 1013 3 4.828032 0 0
6:15 pm 18:15 Cloudy with Haze 20 -6.9 14 -9.8 80 80 NNW 24 39 29.91 1013 5 8.04672 0 0
6:35 pm 18:35 Windy with Snow Likely 20 -6.9 15 -9.7 81 81 NNW 31 50 29.91 1013 3 4.828032 0 0
6:55 pm 18:55 Cloudy with Haze 19 -7 14 -10 79 79 NNW 25 41 29.94 1014 3 4.828032 0 0
7:15 pm 19:15 Cloudy with Haze 19 -7 14 -10 79 79 NNW 25 41 29.94 1014 3 4.828032 0 0
7:35 pm 19:35 Cloudy with Haze 19 -7.1 14 -10.2 79 79 NNW 31 50 30 1016 2.5 4.02336 0 0
7:55 pm 19:55 Cloudy with Haze 19 -7.3 13 -10.5 78 78 NNW 22 35 30 1016 5 8.04672 0 0
8:15 pm 20:15 Cloudy with Haze 19 -7.5 13 -10.5 79 79 NNW 23 37 30.03 1017 5 8.04672 0 0
8:35 pm 20:35 Cloudy with Haze 19 -7.5 13 -10.8 78 78 NNW 25 41 30.03 1017 5 8.04672 0 0
8:55 pm 20:55 Cloudy with Haze 19 -7.3 13 -10.7 77 77 NNW 29 46 30.06 1018 4 6.437376 0 0
9:15 pm 21:15 Cloudy with Haze 19 -7.1 13 -10.5 77 77 NNW 25 41 30.06 1018 4 6.437376 0 0
9:35 pm 21:35 Cloudy with Haze 19 -7 13 -10.4 77 77 NNW 22 35 30.06 1018 4 6.437376 0 0
9:55 pm 21:55 Windy with Snow Likely 19 -7 13 -10.5 76 76 NNW 23 37 30.09 1019 5 8.04672 0 0
10:15 pm 22:15 Cloudy with Haze 20 -6.8 14 -10.1 78 78 NNW 26 43 30.09 1019 5 8.04672 0 0
10:35 pm 22:35 Windy with Snow Likely 20 -6.8 14 -10 78 78 NNW 22 35 30.09 1019 4 6.437376 0 0
10:55 pm 22:55 Cloudy with Haze 20 -6.9 14 -9.9 79 79 NNW 23 37 30.09 1019 5 8.04672 0 0
11:15 pm 23:15 Cloudy 19 -7 14 -10 79 79 NNW 22 35 30.09 1019 7 11.265408 0 0
11:35 pm 23:35 Windy with Snow Likely 19 -7 15 -9.7 81 81 NNW 24 39 30.09 1019 3 4.828032 0 0
11:55 pm 23:55 Windy with Snow Likely 19 -7 15 -9.6 82 82 NNW 23 37 30.09 1019 4 6.437376 0 0

Powered by AerisWeather